DW7394 Weather Reports


Display with metric or nautical units.
time (UTC)temp
F
wind
direction
speed
MPH
gust
MPH
rain 1hr
in
rain 24hr
in
rain mn
in
humidity
%
barometer
mb
20260510163511 56 309 3.0 12.0 0.00 0.28 0.00 49 1017.3
20260510163011 56 346 6.0 12.0 0.00 0.28 0.00 46 1017.2
20260510162511 56 345 4.0 10.0 0.00 0.28 0.00 49 1017.2
20260510162012 56 356 5.0 14.0 0.00 0.28 0.00 48 1017.1
20260510161511 56 23 8.0 14.0 0.00 0.28 0.00 50 1017.2
20260510161009 56 3 5.0 14.0 0.00 0.28 0.00 48 1017.1
20260510160507 56 356 4.0 12.0 0.00 0.28 0.00 50 1017.1
20260510160008 56 359 5.0 12.0 0.00 0.28 0.00 51 1017.1
20260510155504 56 6 7.0 12.0 0.00 0.28 0.00 53 1016.9
20260510155002 56 10 4.0 9.0 0.00 0.28 0.00 53 1016.8
20260510154502 56 4 3.0 10.0 0.00 0.28 0.00 54 1016.7
20260510154001 55 305 6.0 13.0 0.00 0.28 0.00 54 1016.8
20260510153603 55 345 7.0 13.0 0.00 0.28 0.00 51 1016.8
20260510153102 55 62 4.0 16.0 0.00 0.28 0.00 56 1016.7
20260510152558 55 348 5.0 16.0 0.00 0.28 0.00 53 1016.8
20260510152058 55 336 3.0 14.0 0.00 0.28 0.00 56 1016.7
20260510151556 55 301 3.0 14.0 0.00 0.28 0.00 56 1016.6
20260510151055 55 6 6.0 13.0 0.00 0.28 0.00 54 1016.6
20260510150555 54 74 5.0 15.0 0.00 0.28 0.00 54 1016.5
20260510150103 54 356 5.0 15.0 0.00 0.28 0.00 53 1016.6
20260510145553 54 311 4.0 12.0 0.00 0.28 0.00 54 1016.4
20260510145054 53 36 5.0 12.0 0.00 0.28 0.00 53 1016.3
20260510144551 53 22 3.0 17.0 0.00 0.28 0.00 55 1016.2
20260510144054 53 341 9.0 17.0 0.00 0.28 0.00 52 1016.3
20260510143550 52 4 7.0 16.0 0.00 0.28 0.00 54 1016.3
20260510143056 52 359 6.0 20.0 0.00 0.28 0.00 52 1016.3
20260510142547 52 341 11.0 20.0 0.00 0.28 0.00 51 1016.2
20260510142047 52 329 8.0 19.0 0.00 0.28 0.00 54 1016.1
20260510141546 52 325 5.0 14.0 0.00 0.28 0.00 57 1016.2
20260510141048 52 29 6.0 15.0 0.00 0.28 0.00 56 1016.2
20260510140543 51 16 10.0 15.0 0.00 0.28 0.00 55 1016.2
20260510140043 51 339 7.0 17.0 0.00 0.28 0.00 56 1016.2
20260510135546 51 346 10.0 17.0 0.00 0.28 0.00 57 1016.3
20260510135041 51 15 7.0 12.0 0.00 0.28 0.00 59 1016.2
20260510134547 50 27 5.0 14.0 0.00 0.28 0.00 60 1016.2
20260510134042 50 46 6.0 16.0 0.00 0.28 0.00 60 1016.2
20260510133543 50 53 5.0 16.0 0.00 0.28 0.00 61 1016.0
20260510133039 50 25 6.0 15.0 0.00 0.28 0.00 61 1016.0
20260510132537 49 23 7.0 20.0 0.00 0.28 0.00 60 1015.9
20260510132036 49 359 10.0 20.0 0.00 0.28 0.00 60 1015.7
20260510131535 49 13 9.0 20.0 0.00 0.28 0.00 58 1015.7
20260510131034 49 42 6.0 17.0 0.00 0.28 0.00 60 1015.5
20260510130502 49 317 5.0 15.0 0.00 0.28 0.00 62 1015.3
20260510130002 48 322 6.0 12.0 0.00 0.28 0.00 65 1015.2
20260510125500 48 22 5.0 11.0 0.00 0.28 0.00 65 1015.2
20260510125059 48 20 6.0 12.0 0.00 0.28 0.00 66 1015.1
20260510124559 48 326 4.0 12.0 0.00 0.28 0.00 67 1015.0
20260510124059 48 359 6.0 10.0 0.00 0.28 0.00 68 1015.0
20260510123600 47 15 3.0 8.0 0.00 0.28 0.00 69 1014.9
20260510123059 47 3 4.0 9.0 0.00 0.28 0.00 69 1015.0
20260510122556 47 35 5.0 9.0 0.00 0.28 0.00 69 1015.0
20260510122054 47 18 6.0 13.0 0.00 0.28 0.00 69 1014.9
20260510121553 47 359 7.0 13.0 0.00 0.28 0.00 69 1014.8
20260510121056 47 359 6.0 12.0 0.00 0.28 0.00 70 1014.7
20260510120551 47 356 5.0 11.0 0.00 0.28 0.00 70 1014.5
20260510120051 47 32 6.0 11.0 0.00 0.28 0.00 71 1014.4
20260510115549 47 8 5.0 12.0 0.00 0.28 0.00 71 1014.3
20260510115048 47 8 7.0 16.0 0.00 0.28 0.00 71 1014.1
20260510114547 47 3 8.0 16.0 0.00 0.28 0.00 72 1014.0
20260510114047 47 34 7.0 15.0 0.00 0.28 0.00 73 1013.8
20260510113545 47 36 7.0 15.0 0.00 0.28 0.00 74 1013.7
20260510113046 47 349 6.0 14.0 0.00 0.28 0.00 75 1013.6
20260510112544 47 20 7.0 12.0 0.00 0.28 0.00 75 1013.6
20260510112046 47 32 6.0 12.0 0.00 0.28 0.00 75 1013.4
20260510111552 47 16 7.0 12.0 0.00 0.28 0.00 75 1013.3
20260510111041 47 335 6.0 12.0 0.00 0.28 0.00 75 1013.1
20260510110540 47 3 5.0 12.0 0.00 0.28 0.00 76 1013.3
20260510110043 47 355 6.0 11.0 0.00 0.28 0.00 76 1013.1
20260510105538 47 345 5.0 11.0 0.00 0.28 0.00 76 1012.9
20260510105037 47 329 4.0 11.0 0.00 0.28 0.00 76 1012.7
20260510104545 47 356 4.0 11.0 0.00 0.28 0.00 76 1012.5
20260510104038 47 346 5.0 8.0 0.00 0.28 0.00 77 1012.5
20260510103533 47 15 5.0 11.0 0.00 0.28 0.00 77 1012.4
20260510103033 47 8 4.0 11.0 0.00 0.28 0.00 77 1012.4
20260510102532 47 337 4.0 10.0 0.00 0.28 0.00 77 1012.2
20260510102029 47 39 5.0 10.0 0.00 0.28 0.00 78 1012.1
20260510101528 47 34 5.0 10.0 0.00 0.28 0.00 78 1012.0
20260510101027 48 41 5.0 10.0 0.00 0.28 0.00 78 1012.0
20260510100527 48 32 5.0 10.0 0.00 0.28 0.00 78 1012.0
20260510100025 48 20 5.0 10.0 0.00 0.28 0.00 78 1012.0
20260510095525 48 20 3.0 8.0 0.00 0.28 0.00 78 1011.8
20260510095024 48 346 3.0 7.0 0.00 0.28 0.00 77 1011.8
20260510094525 48 23 3.0 8.0 0.00 0.28 0.00 77 1011.9
20260510094022 49 18 3.0 8.0 0.00 0.28 0.00 76 1011.8
20260510093523 49 337 2.0 5.0 0.00 0.28 0.00 76 1011.6
20260510093023 49 356 3.0 6.0 0.00 0.28 0.00 76 1011.5
20260510092521 49 1 3.0 7.0 0.00 0.28 0.00 75 1011.5
20260510092019 49 8 3.0 7.0 0.00 0.28 0.00 75 1011.3
20260510091518 49 345 3.0 9.0 0.00 0.28 0.00 75 1011.1
20260510091018 49 15 5.0 11.0 0.00 0.28 0.00 75 1011.2
20260510090518 49 340 4.0 11.0 0.00 0.28 0.00 75 1011.1
20260510090019 48 334 4.0 9.0 0.00 0.28 0.00 74 1010.9
20260510085516 48 42 3.0 7.0 0.00 0.28 0.00 75 1010.8
20260510085017 48 356 3.0 7.0 0.00 0.28 0.00 75 1010.8
20260510084514 48 41 3.0 5.0 0.00 0.28 0.00 75 1010.7
20260510084013 48 32 2.0 6.0 0.00 0.28 0.00 75 1010.8
20260510083517 48 51 2.0 6.0 0.00 0.28 0.00 74 1010.7
20260510083012 49 339 1.0 4.0 0.00 0.28 0.00 74 1010.4
20260510082511 49 15 0.0 4.0 0.00 0.28 0.00 74 1010.5
20260510082010 49 344 2.0 4.0 0.00 0.28 0.00 74 1010.5
20260510081527 49 322 1.0 3.0 0.00 0.28 0.00 73 1010.5
20260510081007 49 41 0.0 2.0 0.00 0.28 0.00 73 1010.3
20260510080507 49 74 0.0 3.0 0.00 0.28 0.00 73 1010.2
20260510080005 49 27 0.0 3.0 0.00 0.28 0.00 73 1010.1
20260510075504 49 84 0.0 3.0 0.00 0.28 0.00 73 1009.9
20260510075003 49 51 1.0 5.0 0.00 0.28 0.00 73 1009.9
20260510074503 49 23 2.0 6.0 0.00 0.28 0.00 73 1009.9
20260510074001 50 41 2.0 6.0 0.00 0.28 0.00 73 1009.7
20260510073501 50 356 2.0 7.0 0.00 0.28 0.00 73 1009.7
20260510073106 50 356 3.0 7.0 0.00 0.28 0.00 73 1009.7
20260510072600 50 356 3.0 7.0 0.00 0.28 0.00 74 1009.7
20260510072058 50 18 1.0 6.0 0.00 0.28 0.00 73 1009.5
20260510071559 50 11 3.0 6.0 0.00 0.28 0.00 73 1009.5
20260510071056 50 347 4.0 7.0 0.00 0.28 0.00 73 1009.5
20260510070656 50 18 4.0 9.0 0.00 0.28 0.00 73 1009.4
20260510070054 50 340 4.0 10.0 0.00 0.28 0.00 74 1009.3
20260510065555 50 25 5.0 10.0 0.00 0.28 0.00 74 1009.1
20260510065054 50 356 4.0 8.0 0.00 0.28 0.00 75 1009.2
20260510064559 50 339 4.0 8.0 0.00 0.28 0.00 75 1009.1
20260510064054 50 10 3.0 12.0 0.00 0.28 0.00 76 1009.1
20260510063552 50 25 4.0 12.0 0.00 0.28 0.00 76 1009.1
20260510063052 50 18 5.0 8.0 0.00 0.28 0.00 77 1009.1
20260510062551 51 15 3.0 8.0 0.00 0.28 0.00 78 1009.1
20260510062054 51 8 3.0 11.0 0.00 0.28 0.00 78 1009.2
20260510061549 51 322 5.0 12.0 0.00 0.28 0.00 79 1009.2
20260510061046 51 3 4.0 13.0 0.00 0.28 0.00 79 1009.2
20260510060547 51 356 7.0 13.0 0.00 0.28 0.00 79 1009.2
20260510060048 52 4 6.0 13.0 0.00 0.28 0.00 79 1009.1
20260510055542 52 25 7.0 14.0 0.00 0.28 0.00 79 1009.0
20260510055041 53 6 8.0 18.0 0.00 0.28 0.00 78 1008.9
20260510054540 54 340 6.0 18.0 0.00 0.28 0.00 78 1008.7
20260510054038 54 4 10.0 15.0 0.00 0.28 0.00 79 1008.7
20260510053536 55 356 6.0 14.0 0.00 0.28 0.00 79 1008.6
20260510053042 56 39 8.0 14.0 0.00 0.28 0.00 79 1008.6
20260510052535 56 9 4.0 9.0 0.00 0.28 0.00 79 1008.5
20260510052034 56 335 0.0 9.0 0.00 0.28 0.00 79 1008.5
20260510051539 56 218 2.0 11.0 0.00 0.28 0.00 79 1008.3
20260510051034 56 346 3.0 11.0 0.00 0.28 0.00 79 1008.3
20260510050531 56 333 3.0 9.0 0.00 0.28 0.00 79 1008.3
20260510050039 56 319 3.0 11.0 0.00 0.28 0.00 79 1007.8
20260510045531 56 245 6.0 11.0 0.00 0.30 0.00 79 1007.9
20260510045029 56 290 5.0 14.0 0.00 0.30 0.00 78 1007.5
20260510044543 56 197 6.0 14.0 0.00 0.30 0.00 78 1007.0
20260510044026 56 182 5.0 14.0 0.00 0.30 0.00 78 1006.8
20260510043525 56 201 7.0 15.0 0.00 0.30 0.00 79 1006.7
20260510043024 56 224 9.0 15.0 0.00 0.30 0.00 79 1006.5
20260510042523 56 199 6.0 13.0 0.00 0.30 0.00 79 1006.5
20260510042025 56 212 4.0 10.0 0.00 0.30 0.00 79 1006.5
20260510041521 56 213 4.0 10.0 0.00 0.30 0.00 80 1006.5
20260510041020 56 218 3.0 8.0 0.00 0.30 0.00 80 1006.4
20260510040527 56 205 4.0 12.0 0.00 0.30 0.00 80 1006.4
20260510040033 56 180 5.0 13.0 0.00 0.30 0.00 80 1006.4
20260510035519 56 190 6.0 15.0 0.00 0.31 0.30 80 1006.4
20260510035021 56 245 6.0 19.0 0.00 0.31 0.30 81 1006.5
20260510034518 56 204 9.0 19.0 0.00 0.31 0.30 81 1006.5
20260510034018 56 241 6.0 15.0 0.00 0.31 0.30 81 1006.6
20260510033517 56 196 9.0 20.0 0.00 0.31 0.30 82 1006.6
20260510033018 56 210 7.0 21.0 0.00 0.31 0.30 82 1006.8
20260510032517 56 218 12.0 21.0 0.00 0.31 0.30 82 1006.7
20260510032023 55 231 10.0 19.0 0.00 0.31 0.30 83 1006.7
20260510031517 55 229 11.0 19.0 0.00 0.31 0.30 83 1006.7
20260510031017 55 224 9.0 18.0 0.00 0.31 0.30 84 1006.6
20260510030524 55 211 8.0 19.0 0.00 0.31 0.30 84 1006.6
20260510030017 55 236 5.0 19.0 0.00 0.31 0.30 84 1006.5
20260510025517 55 200 9.0 15.0 0.00 0.31 0.30 84 1006.5
20260510025018 55 205 5.0 8.0 0.00 0.31 0.30 85 1006.5
20260510024516 55 214 3.0 13.0 0.00 0.31 0.30 85 1006.5
20260510024015 55 189 4.0 21.0 0.00 0.31 0.30 85 1006.5
20260510023516 55 224 7.0 25.0 0.00 0.31 0.30 85 1006.6
20260510023015 55 196 13.0 25.0 0.00 0.31 0.30 86 1006.9
20260510022515 54 217 13.0 24.0 0.00 0.31 0.30 86 1007.0
20260510022015 54 205 5.0 14.0 0.00 0.31 0.30 86 1007.0
20260510021515 54 208 3.0 7.0 0.00 0.31 0.30 86 1006.4
20260510021014 54 271 3.0 8.0 0.00 0.31 0.30 86 1006.3
20260510020514 54 194 2.0 8.0 0.00 0.31 0.30 86 1006.3
20260510020020 54 173 2.0 6.0 0.00 0.31 0.30 86 1006.2
20260510015515 54 173 1.0 7.0 0.00 0.31 0.30 86 1006.1
20260510015021 54 181 3.0 10.0 0.00 0.31 0.30 86 1006.2
20260510014514 54 218 4.0 10.0 0.00 0.31 0.30 86 1006.2
20260510014013 54 203 4.0 9.0 0.00 0.31 0.30 85 1006.1
20260510013513 54 130 2.0 12.0 0.00 0.31 0.30 85 1006.0
20260510013013 54 218 5.0 12.0 0.00 0.31 0.30 85 1006.2
20260510012516 54 198 5.0 10.0 0.00 0.31 0.30 85 1006.1
20260510012013 54 259 3.0 9.0 0.00 0.31 0.30 85 1006.0
20260510011516 54 193 4.0 9.0 0.00 0.31 0.30 85 1006.0
20260510011011 54 198 3.0 9.0 0.00 0.31 0.30 85 1005.9
20260510010511 54 197 3.0 10.0 0.00 0.31 0.30 85 1005.9
20260510010011 54 212 5.0 10.0 0.00 0.31 0.30 85 1005.8
20260510005511 55 212 4.0 9.0 0.00 0.35 0.30 85 1005.8
20260510005011 55 239 4.0 11.0 0.00 0.35 0.30 85 1005.7
20260510004511 55 227 5.0 13.0 0.00 0.35 0.30 85 1005.7
20260510004013 55 279 6.0 13.0 0.00 0.35 0.30 85 1005.7
20260510003509 55 217 6.0 13.0 0.00 0.35 0.30 85 1005.8
20260510003010 55 218 6.0 13.0 0.01 0.35 0.30 85 1005.8
20260510002510 55 241 7.0 12.0 0.02 0.35 0.30 85 1005.8
20260510002008 55 197 6.0 15.0 0.02 0.35 0.30 85 1005.8
20260510001607 55 207 6.0 15.0 0.03 0.35 0.30 85 1005.7
20260510001009 56 220 7.0 15.0 0.05 0.35 0.30 85 1005.7
20260510000506 56 269 6.0 15.0 0.07 0.35 0.30 85 1005.7
20260510000014 56 188 9.0 15.0 0.07 0.35 0.30 85 1005.7
20260509235504 55 210 6.0 14.0 0.12 0.41 0.30 84 1005.7
20260509235004 55 293 6.0 13.0 0.17 0.41 0.30 84 1005.4
20260509234504 55 238 6.0 15.0 0.27 0.41 0.30 84 1005.6
20260509234003 55 223 7.0 18.0 0.28 0.41 0.30 83 1005.7
20260509233502 55 247 7.0 18.0 0.28 0.41 0.30 83 1005.5
20260509233001 56 193 5.0 21.0 0.28 0.40 0.28 82 1005.5
20260509232600 56 205 9.0 21.0 0.28 0.40 0.28 82 1005.7
20260509232101 56 235 10.0 25.0 0.27 0.39 0.28 81 1005.8
20260509231600 56 250 10.0 25.0 0.26 0.38 0.27 81 1005.9
20260509231057 57 315 8.0 20.0 0.24 0.36 0.25 79 1006.1
20260509230601 57 218 2.0 16.0 0.22 0.34 0.23 78 1005.8
20260509230058 58 326 3.0 20.0 0.22 0.34 0.23 76 1005.1
20260509225600 59 337 6.0 20.0 0.17 0.35 0.18 75 1005.6
20260509225055 61 313 5.0 25.0 0.12 0.30 0.13 72 1005.8
20260509224554 63 345 9.0 25.0 0.02 0.20 0.03 68 1005.8
20260509224054 66 322 9.0 22.0 0.01 0.19 0.02 63 1005.0
20260509223554 67 254 11.0 26.0 0.00 0.18 0.01 59 1003.7
20260509223059 67 164 11.0 26.0 0.00 0.18 0.01 57 1002.9
20260509222553 68 257 9.0 26.0 0.00 0.18 0.01 57 1002.8
20260509222053 68 165 10.0 24.0 0.00 0.18 0.01 57 1002.9
20260509221552 68 227 14.0 24.0 0.00 0.18 0.01 57 1003.0
20260509221052 68 218 10.0 23.0 0.00 0.18 0.01 57 1003.2
20260509220554 68 218 12.0 25.0 0.00 0.18 0.01 57 1003.3
20260509220056 69 230 14.0 25.0 0.00 0.18 0.01 57 1003.2
20260509215552 69 215 9.0 35.0 0.00 0.19 0.01 56 1003.2
20260509215052 69 224 14.0 35.0 0.00 0.19 0.01 56 1003.0
20260509214552 69 207 14.0 28.0 0.00 0.19 0.01 57 1003.0
20260509214051 69 201 12.0 28.0 0.00 0.19 0.01 58 1002.8
20260509213551 69 182 9.0 27.0 0.00 0.19 0.01 59 1002.9
20260509213051 69 190 13.0 32.0 0.00 0.19 0.01 58 1002.8
20260509212550 69 213 13.0 32.0 0.00 0.19 0.01 57 1002.9
20260509212050 69 185 13.0 31.0 0.00 0.19 0.01 57 1002.9
20260509211549 69 226 12.0 34.0 0.00 0.19 0.01 56 1002.9
20260509211048 69 238 16.0 35.0 0.00 0.19 0.01 57 1003.1
20260509210550 69 232 21.0 35.0 0.00 0.19 0.01 58 1003.2
20260509210047 69 218 12.0 35.0 0.00 0.19 0.01 57 1003.3
20260509205545 69 222 17.0 35.0 0.00 0.19 0.01 58 1003.3
20260509205045 69 200 14.0 35.0 0.00 0.19 0.01 59 1003.4
20260509204545 69 177 12.0 34.0 0.00 0.19 0.01 60 1003.4
20260509204044 69 177 15.0 34.0 0.00 0.19 0.01 59 1003.7
20260509203545 69 182 13.0 36.0 0.00 0.19 0.01 60 1003.7
20260509203043 69 237 17.0 36.0 0.00 0.19 0.01 59 1003.8
20260509202541 69 199 9.0 29.0 0.00 0.19 0.01 60 1003.9
20260509202043 69 218 19.0 30.0 0.00 0.19 0.01 58 1004.0
20260509201551 69 293 12.0 25.0 0.00 0.19 0.01 59 1004.1
20260509201038 69 218 11.0 36.0 0.00 0.19 0.01 57 1004.1
20260509200537 69 203 17.0 36.0 0.00 0.19 0.01 57 1004.2
20260509200047 69 173 20.0 33.0 0.00 0.19 0.01 58 1004.1
20260509195537 69 230 15.0 32.0 0.00 0.19 0.01 58 1004.2
20260509195035 69 238 9.0 33.0 0.00 0.19 0.01 58 1004.2
20260509194536 70 194 18.0 33.0 0.00 0.19 0.01 58 1004.4
20260509194035 70 197 9.0 27.0 0.00 0.19 0.01 58 1004.4
20260509193535 70 162 12.0 25.0 0.00 0.19 0.01 58 1004.4
20260509193037 70 201 10.0 28.0 0.00 0.19 0.01 59 1004.5
20260509192531 69 259 14.0 33.0 0.00 0.19 0.01 61 1004.7
20260509192032 69 133 12.0 34.0 0.00 0.19 0.01 60 1004.7
20260509191529 69 209 12.0 32.0 0.00 0.19 0.01 61 1004.7
20260509191031 68 182 19.0 32.0 0.00 0.19 0.01 60 1005.0
20260509190527 68 206 17.0 32.0 0.00 0.19 0.01 61 1005.1
20260509190027 68 184 15.0 32.0 0.00 0.19 0.01 61 1005.1
20260509185527 67 197 13.0 25.0 0.00 0.19 0.01 61 1005.1
20260509185026 67 203 13.0 25.0 0.00 0.19 0.01 62 1005.2
20260509184538 67 240 11.0 24.0 0.00 0.19 0.01 62 1005.2
20260509184025 67 220 10.0 24.0 0.00 0.19 0.01 62 1005.3
20260509183525 68 212 14.0 26.0 0.00 0.19 0.01 60 1005.4
20260509183025 68 230 12.0 26.0 0.00 0.19 0.01 60 1005.2
20260509182524 68 238 13.0 25.0 0.00 0.19 0.01 62 1005.3
20260509182024 68 203 15.0 25.0 0.00 0.19 0.01 59 1005.4
20260509181523 68 214 9.0 22.0 0.00 0.19 0.01 60 1005.2
20260509181029 68 242 8.0 27.0 0.00 0.19 0.01 60 1005.2
20260509180521 68 185 10.0 27.0 0.00 0.19 0.01 60 1005.1
20260509180021 68 184 14.0 27.0 0.00 0.19 0.01 59 1005.0
20260509175620 68 159 10.0 24.0 0.00 0.19 0.01 59 1005.0
20260509175034 68 250 11.0 24.0 0.00 0.19 0.01 59 1005.3
20260509174533 67 187 8.0 23.0 0.00 0.19 0.01 58 1005.5
20260509174032 67 218 8.0 19.0 0.00 0.19 0.01 58 1005.5
20260509173531 67 175 9.0 22.0 0.00 0.19 0.01 58 1005.5
20260509173032 67 194 12.0 23.0 0.00 0.19 0.01 58 1005.5
20260509172530 67 223 15.0 23.0 0.00 0.19 0.01 59 1005.6
20260509172029 67 227 12.0 21.0 0.00 0.19 0.01 59 1005.6
20260509171539 67 222 9.0 21.0 0.00 0.19 0.01 58 1005.5
20260509171027 67 227 12.0 21.0 0.00 0.19 0.01 58 1005.5
20260509170526 67 216 4.0 20.0 0.00 0.19 0.01 62 1005.5
20260509170025 66 132 8.0 22.0 0.00 0.19 0.01 62 1005.5
20260509165524 66 219 8.0 24.0 0.00 0.19 0.01 63 1005.5
20260509165022 65 232 13.0 24.0 0.00 0.19 0.01 62 1005.6
20260509164522 65 195 11.0 23.0 0.00 0.19 0.01 62 1005.6
20260509164021 65 200 13.0 21.0 0.00 0.19 0.01 63 1005.5